Time,TemperatureF,DewpointF,PressureIn,WindDirection,WindDirectionDegrees,WindSpeedMPH,WindSpeedGustMPH,Humidity,HourlyPrecipIn,Conditions,Clouds,dailyrainin,SoftwareType,DateUTC
2014-03-02 00:00:00,36.0,33.0,30.13,WSW,250,17.0,20.0,89,-99.99,,,-99.99,,2014-03-02 05:00:00,
2014-03-02 00:43:00,36.0,33.0,30.13,WSW,250,17.0,20.0,89,-99.99,,,-99.99,,2014-03-02 05:43:00,
2014-03-02 00:53:00,36.0,33.0,30.13,WSW,250,17.0,20.0,89,-99.99,,,-99.99,,2014-03-02 05:53:00,
2014-03-02 01:00:00,36.0,32.0,30.11,WSW,240,20.0,22.0,87,-99.99,,,-99.99,,2014-03-02 06:00:00,
2014-03-02 01:42:00,36.0,32.0,30.11,WSW,240,20.0,22.0,87,-99.99,,,-99.99,,2014-03-02 06:42:00,
2014-03-02 01:52:00,36.0,32.0,30.11,WSW,240,20.0,22.0,87,-99.99,,,-99.99,,2014-03-02 06:52:00,
2014-03-02 02:00:00,36.0,32.0,30.09,WSW,240,20.0,22.0,86,-99.99,,,-99.99,,2014-03-02 07:00:00,
2014-03-02 02:42:00,36.0,32.0,30.09,WSW,240,20.0,22.0,86,-99.99,,,-99.99,,2014-03-02 07:42:00,
2014-03-02 02:52:00,36.0,32.0,30.09,WSW,240,20.0,22.0,86,-99.99,,,-99.99,,2014-03-02 07:52:00,
2014-03-02 03:00:00,35.0,33.0,30.08,West,260,20.0,21.0,90,-99.99,,,-99.99,,2014-03-02 08:00:00,
2014-03-02 03:42:00,35.0,33.0,30.08,West,260,20.0,21.0,90,-99.99,,,-99.99,,2014-03-02 08:42:00,
2014-03-02 03:52:00,35.0,33.0,30.08,West,260,20.0,21.0,90,-99.99,,,-99.99,,2014-03-02 08:52:00,
2014-03-02 04:00:00,35.0,34.0,30.08,WSW,250,15.0,15.0,95,-99.99,,,-99.99,,2014-03-02 09:00:00,
2014-03-02 04:43:00,35.0,34.0,30.08,WSW,250,15.0,15.0,95,-99.99,,,-99.99,,2014-03-02 09:43:00,
2014-03-02 04:53:00,35.0,34.0,30.08,WSW,250,15.0,15.0,95,-99.99,,,-99.99,,2014-03-02 09:53:00,
2014-03-02 05:00:00,35.0,32.0,30.08,WSW,250,16.0,17.0,88,-99.99,,,-99.99,,2014-03-02 10:00:00,
2014-03-02 05:43:00,35.0,32.0,30.08,WSW,250,16.0,17.0,88,-99.99,,,-99.99,,2014-03-02 10:43:00,
2014-03-02 05:53:00,35.0,32.0,30.08,WSW,250,16.0,17.0,88,-99.99,,,-99.99,,2014-03-02 10:53:00,
2014-03-02 06:00:00,36.0,30.0,30.06,WSW,240,16.0,17.0,79,-99.99,,,-99.99,,2014-03-02 11:00:00,
2014-03-02 06:43:00,36.0,30.0,30.06,WSW,240,16.0,17.0,79,-99.99,,,-99.99,,2014-03-02 11:43:00,
2014-03-02 06:52:00,36.0,30.0,30.06,WSW,240,16.0,17.0,79,-99.99,,,-99.99,,2014-03-02 11:52:00,
2014-03-02 07:00:00,36.0,26.0,30.06,West,260,17.0,20.0,67,-99.99,,,-99.99,,2014-03-02 12:00:00,
2014-03-02 07:42:00,36.0,26.0,30.06,West,260,17.0,20.0,67,-99.99,,,-99.99,,2014-03-02 12:42:00,
2014-03-02 07:52:00,36.0,26.0,30.06,West,260,17.0,20.0,67,-99.99,,,-99.99,,2014-03-02 12:52:00,
2014-03-02 08:00:00,36.0,27.0,30.06,West,260,16.0,17.0,71,-99.99,,,-99.99,,2014-03-02 13:00:00,
2014-03-02 08:42:00,36.0,27.0,30.06,West,260,16.0,17.0,71,-99.99,,,-99.99,,2014-03-02 13:42:00,
2014-03-02 08:52:00,36.0,27.0,30.06,West,260,16.0,17.0,71,-99.99,,,-99.99,,2014-03-02 13:52:00,
2014-03-02 09:00:00,36.0,29.0,30.07,West,260,16.0,18.0,77,-99.99,,,-99.99,,2014-03-02 14:00:00,
2014-03-02 09:42:00,36.0,29.0,30.07,West,260,16.0,18.0,77,-99.99,,,-99.99,,2014-03-02 14:42:00,
2014-03-02 09:52:00,36.0,29.0,30.07,West,260,16.0,18.0,77,-99.99,,,-99.99,,2014-03-02 14:52:00,
2014-03-02 10:00:00,36.0,28.0,30.07,West,260,16.0,17.0,72,-99.99,,,-99.99,,2014-03-02 15:00:00,
2014-03-02 10:43:00,36.0,28.0,30.07,West,260,16.0,17.0,72,-99.99,,,-99.99,,2014-03-02 15:43:00,
2014-03-02 10:54:00,36.0,28.0,30.07,West,260,16.0,17.0,72,-99.99,,,-99.99,,2014-03-02 15:54:00,
2014-03-02 11:00:00,35.0,27.0,30.07,WNW,290,11.0,13.0,74,-99.99,,,-99.99,,2014-03-02 16:00:00,
2014-03-02 11:43:00,35.0,27.0,30.07,WNW,290,11.0,13.0,74,-99.99,,,-99.99,,2014-03-02 16:43:00,
2014-03-02 11:53:00,35.0,27.0,30.07,WNW,290,11.0,13.0,74,-99.99,,,-99.99,,2014-03-02 16:53:00,
2014-03-02 12:00:00,34.0,25.0,30.03,NW,320,3.0,5.0,67,-99.99,,,-99.99,,2014-03-02 17:00:00,
2014-03-02 12:43:00,34.0,25.0,30.03,NW,320,3.0,5.0,67,-99.99,,,-99.99,,2014-03-02 17:43:00,
2014-03-02 12:52:00,34.0,25.0,30.03,NW,320,3.0,5.0,67,-99.99,,,-99.99,,2014-03-02 17:52:00,
2014-03-02 13:00:00,35.0,23.0,30.01,West,270,7.0,7.0,63,-99.99,,,-99.99,,2014-03-02 18:00:00,
2014-03-02 13:42:00,35.0,23.0,30.01,West,270,7.0,7.0,63,-99.99,,,-99.99,,2014-03-02 18:42:00,
2014-03-02 13:52:00,35.0,23.0,30.01,West,270,7.0,7.0,63,-99.99,,,-99.99,,2014-03-02 18:52:00,
2014-03-02 14:00:00,34.0,26.0,29.99,WNW,300,5.0,5.0,69,-99.99,,,-99.99,,2014-03-02 19:00:00,
2014-03-02 14:42:00,34.0,26.0,29.99,WNW,300,5.0,5.0,69,-99.99,,,-99.99,,2014-03-02 19:42:00,
2014-03-02 14:52:00,34.0,26.0,29.99,WNW,300,5.0,5.0,69,-99.99,,,-99.99,,2014-03-02 19:52:00,
2014-03-02 15:00:00,35.0,24.0,29.98,NNW,330,5.0,5.0,63,-99.99,,,-99.99,,2014-03-02 20:00:00,
2014-03-02 15:52:00,35.0,24.0,29.98,NNW,330,5.0,5.0,63,-99.99,,,-99.99,,2014-03-02 20:52:00,
2014-03-02 16:00:00,35.0,25.0,29.99,NW,320,5.0,5.0,68,-99.99,,,-99.99,,2014-03-02 21:00:00,
2014-03-02 16:43:00,35.0,25.0,29.99,NW,320,5.0,5.0,68,-99.99,,,-99.99,,2014-03-02 21:43:00,
2014-03-02 16:53:00,35.0,25.0,29.99,NW,320,5.0,5.0,68,-99.99,,,-99.99,,2014-03-02 21:53:00,
2014-03-02 17:00:00,35.0,27.0,29.99,North,360,3.0,3.0,73,-99.99,,,-99.99,,2014-03-02 22:00:00,
2014-03-02 17:43:00,35.0,27.0,29.99,North,360,3.0,3.0,73,-99.99,,,-99.99,,2014-03-02 22:43:00,
2014-03-02 17:53:00,35.0,27.0,29.99,North,360,3.0,3.0,73,-99.99,,,-99.99,,2014-03-02 22:53:00,
2014-03-02 18:00:00,34.0,27.0,29.99,North,0,0.0,0.0,74,-99.99,,,-99.99,,2014-03-02 23:00:00,
2014-03-02 18:42:00,34.0,27.0,29.99,North,0,0.0,0.0,74,-99.99,,,-99.99,,2014-03-02 23:42:00,
2014-03-02 18:53:00,34.0,27.0,29.99,North,0,0.0,0.0,74,-99.99,,,-99.99,,2014-03-02 23:53:00,
2014-03-02 19:00:00,35.0,24.0,29.99,WSW,240,5.0,5.0,64,-99.99,,,-99.99,,2014-03-03 00:00:00,
2014-03-02 19:42:00,35.0,24.0,29.99,WSW,240,5.0,5.0,64,-99.99,,,-99.99,,2014-03-03 00:42:00,
2014-03-02 19:52:00,35.0,24.0,29.99,WSW,240,5.0,5.0,64,-99.99,,,-99.99,,2014-03-03 00:52:00,
2014-03-02 20:00:00,34.0,30.0,30.00,SW,230,7.0,7.0,84,-99.99,,,-99.99,,2014-03-03 01:00:00,
2014-03-02 20:42:00,34.0,30.0,30.00,SW,230,7.0,7.0,84,-99.99,,,-99.99,,2014-03-03 01:42:00,
2014-03-02 20:52:00,34.0,30.0,30.00,SW,230,7.0,7.0,84,-99.99,,,-99.99,,2014-03-03 01:52:00,
2014-03-02 21:00:00,35.0,28.0,29.98,WNW,290,6.0,7.0,75,-99.99,,,-99.99,,2014-03-03 02:00:00,
2014-03-02 21:42:00,35.0,28.0,29.98,WNW,290,6.0,7.0,75,-99.99,,,-99.99,,2014-03-03 02:42:00,
2014-03-02 21:52:00,35.0,28.0,29.98,WNW,290,6.0,7.0,75,-99.99,,,-99.99,,2014-03-03 02:52:00,
2014-03-02 22:00:00,35.0,25.0,29.98,NW,310,11.0,13.0,67,-99.99,,,-99.99,,2014-03-03 03:00:00,
2014-03-02 22:43:00,35.0,25.0,29.98,NW,310,11.0,13.0,67,-99.99,,,-99.99,,2014-03-03 03:43:00,
2014-03-02 22:53:00,35.0,25.0,29.98,NW,310,11.0,13.0,67,-99.99,,,-99.99,,2014-03-03 03:53:00,
2014-03-02 23:00:00,35.0,22.0,29.96,NW,310,15.0,16.0,58,-99.99,,,-99.99,,2014-03-03 04:00:00,
2014-03-02 23:43:00,35.0,22.0,29.96,NW,310,15.0,16.0,58,-99.99,,,-99.99,,2014-03-03 04:43:00,
2014-03-02 23:53:00,35.0,22.0,29.96,NW,310,15.0,16.0,58,-99.99,,,-99.99,,2014-03-03 04:53:00,